Date String (YYYY-MM-DD hh:mm:ss) UTC,Instrument flags,Ambient pressure (hPa),Sample flow (lpm),Bypass flow (lpm),Sample temperature (°C),Ambient temperature (°C),ASC tube jacket temperature (°C),LED temperature (°C),Box temperature (°C),Sample RH (%),Span deviation,Mass concentration (μg/m³),Mass concentration (μg/m³),Mass concentration (μg/m³)
DateTimeUTC,F1_M11,P_M11,Q1_M11,Q2_M11,T1_M11,T2_M11,T3_M11,T4_M11,T5_M11,U1_M11,ZSPAN_M11,X2_M11,X0_M11,X1_M11
2022-07-09 18:00:00,,0833.0,5.00,0.00,29.2,27.0,00.0,37.8,31.1,15.1,0000.0,0003.39,0007.39,0002.61
2022-07-09 18:01:00,,0833.0,5.00,0.00,29.2,27.1,00.0,37.9,31.0,15.4,0000.0,0003.34,0007.15,0002.54
2022-07-09 18:02:00,,0833.0,4.99,0.00,29.2,27.3,00.0,37.9,31.0,14.4,0000.0,0003.30,0007.06,0002.48
2022-07-09 18:03:00,,0833.0,5.00,0.00,29.2,27.5,00.0,37.9,31.0,15.1,0000.0,0003.25,0006.86,0002.45
2022-07-09 18:04:00,,0833.0,5.00,0.00,29.2,27.7,00.0,37.9,31.1,15.3,0000.0,0003.20,0007.92,0002.40
2022-07-09 18:05:00,,0833.0,5.01,0.00,29.2,27.8,00.0,37.9,31.1,15.7,0000.0,0003.19,0008.19,0002.39
2022-07-09 18:06:00,,0833.1,4.99,0.00,29.2,27.4,00.0,37.8,31.1,16.2,0000.0,0003.14,0007.88,0002.39
2022-07-09 18:07:00,,0833.1,5.01,0.00,29.2,27.0,00.0,37.8,31.0,16.9,0000.0,0003.15,0008.29,0002.41
2022-07-09 18:08:00,,0833.0,5.02,0.00,29.1,27.0,00.0,37.8,31.0,17.2,0000.0,0003.11,0008.91,0002.43
2022-07-09 18:09:00,,0833.0,5.00,0.00,29.1,27.1,00.0,37.8,30.9,17.9,0000.0,0003.12,0008.88,0002.46
2022-07-09 18:10:00,,0833.0,5.00,0.00,29.1,27.3,00.0,37.8,30.9,18.1,0000.0,0003.15,0009.06,0002.48
2022-07-09 18:11:00,,0833.0,5.00,0.00,29.1,27.5,00.0,37.8,31.0,17.1,0000.0,0003.18,0010.41,0002.49
2022-07-09 18:12:00,,0833.0,5.01,0.00,29.2,27.7,00.0,37.8,31.1,16.7,0000.0,0003.21,0010.68,0002.53
2022-07-09 18:13:00,,0833.0,5.00,0.00,29.2,27.9,00.0,37.8,31.1,15.6,0000.0,0003.25,0010.75,0002.56
2022-07-09 18:14:00,,0833.0,4.99,0.00,29.2,27.4,00.0,37.8,31.1,16.2,0000.0,0003.26,0010.75,0002.56
2022-07-09 18:15:00,,0832.9,5.01,0.00,29.2,27.0,00.0,37.8,31.0,18.0,0000.0,0003.30,0009.87,0002.60
2022-07-09 18:16:00,,0832.8,5.00,0.00,29.1,27.0,00.0,37.8,31.0,17.5,0000.0,0003.32,0009.57,0002.63
2022-07-09 18:17:00,,0832.8,5.00,0.00,29.1,27.2,00.0,37.8,30.9,15.3,0000.0,0003.35,0009.94,0002.63
2022-07-09 18:18:00,,0832.8,5.00,0.00,29.1,27.4,00.0,37.8,30.9,16.2,0000.0,0003.33,0009.47,0002.61
2022-07-09 18:19:00,,0832.8,4.99,0.00,29.1,27.6,00.0,37.8,31.0,16.6,0000.0,0003.35,0008.50,0002.61
2022-07-09 18:20:00,,0832.8,5.00,0.00,29.2,27.7,00.0,37.8,31.1,18.1,0000.0,0003.35,0008.46,0002.62
2022-07-09 18:21:00,,0832.8,5.00,0.00,29.2,27.9,00.0,37.8,31.1,19.0,0000.0,0003.36,0008.89,0002.64
2022-07-09 18:22:00,,0832.8,5.01,0.00,29.2,27.5,00.0,37.8,31.1,18.4,0000.0,0003.37,0007.97,0002.66
2022-07-09 18:23:00,,0832.8,5.00,0.00,29.1,27.0,00.0,37.8,31.0,18.5,0000.0,0003.41,0007.75,0002.69
2022-07-09 18:24:00,,0832.8,5.00,0.00,29.1,27.0,00.0,37.8,31.0,17.4,0000.0,0003.40,0007.76,0002.70
2022-07-09 18:25:00,,0832.8,5.00,0.00,29.1,27.2,00.0,37.8,30.9,17.0,0000.0,0003.42,0007.79,0002.71
2022-07-09 18:26:00,,0832.7,5.00,0.00,29.1,27.4,00.0,37.8,30.9,16.5,0000.0,0003.42,0007.77,0002.71
2022-07-09 18:27:00,,0832.8,5.00,0.00,29.1,27.6,00.0,37.8,31.0,16.2,0000.0,0003.39,0008.01,0002.68
2022-07-09 18:28:00,,0832.7,5.00,0.00,29.1,27.8,00.0,37.8,31.1,16.4,0000.0,0003.37,0008.24,0002.68
2022-07-09 18:29:00,,0832.7,5.01,0.00,29.2,27.7,00.0,37.8,31.1,15.5,0000.0,0003.37,0009.36,0002.70
2022-07-09 18:30:00,,0832.7,5.00,0.00,29.1,27.1,00.0,37.7,31.0,15.9,0000.0,0003.36,0009.31,0002.71
2022-07-09 18:31:00,,0832.8,5.00,0.00,29.1,27.0,00.0,37.7,30.9,15.2,0000.0,0003.38,0009.61,0002.70
2022-07-09 18:32:00,,0832.8,4.99,0.00,29.1,27.1,00.0,37.7,30.9,15.5,0000.0,0003.37,0009.53,0002.67
2022-07-09 18:33:00,,0832.7,5.00,0.00,29.1,27.2,00.0,37.7,30.9,15.3,0000.0,0003.34,0009.18,0002.65
2022-07-09 18:34:00,,0832.7,5.00,0.00,29.1,27.4,00.0,37.7,30.9,14.6,0000.0,0003.29,0009.11,0002.61
2022-07-09 18:35:00,,0832.7,5.01,0.00,29.1,27.6,00.0,37.8,31.0,13.9,0000.0,0003.28,0009.16,0002.58
2022-07-09 18:36:00,,0832.7,5.01,0.00,29.1,27.8,00.0,37.8,31.1,14.2,0000.0,0003.27,0009.13,0002.57
2022-07-09 18:37:00,,0832.7,4.99,0.00,29.1,27.7,00.0,37.8,31.1,14.1,0000.0,0003.27,0009.84,0002.56
2022-07-09 18:38:00,,0832.7,5.00,0.00,29.1,27.1,00.0,37.7,31.0,14.5,0000.0,0003.25,0009.51,0002.55
2022-07-09 18:39:00,,0832.7,5.00,0.00,29.1,27.0,00.0,37.7,30.9,14.8,0000.0,0003.23,0008.83,0002.55
2022-07-09 18:40:00,,0832.6,5.00,0.00,29.1,27.1,00.0,37.7,30.9,14.6,0000.0,0003.26,0007.74,0002.54
2022-07-09 18:41:00,,0832.7,5.00,0.00,29.1,27.2,00.0,37.7,30.9,14.6,0000.0,0003.28,0007.82,0002.54
2022-07-09 18:42:00,,0832.6,5.00,0.00,29.1,27.4,00.0,37.7,30.9,14.5,0000.0,0003.26,0007.64,0002.53
2022-07-09 18:43:00,,0832.7,5.00,0.00,29.1,27.6,00.0,37.7,31.0,14.2,0000.0,0003.23,0006.93,0002.52
2022-07-09 18:44:00,,0832.6,5.01,0.00,29.1,27.7,00.0,37.7,31.0,14.2,0000.0,0003.23,0007.66,0002.52
2022-07-09 18:45:00,,0832.6,4.99,0.00,29.1,27.3,00.0,37.7,31.0,14.5,0000.0,0003.26,0007.77,0002.53
2022-07-09 18:46:00,,0832.6,4.99,0.00,29.1,26.9,00.0,37.7,30.9,14.7,0000.0,0003.26,0007.59,0002.53
2022-07-09 18:47:00,,0832.6,5.00,0.00,29.0,27.0,00.0,37.7,30.9,14.4,0000.0,0003.24,0007.56,0002.52
2022-07-09 18:48:00,,0832.6,4.99,0.00,29.0,27.1,00.0,37.7,30.8,14.8,0000.0,0003.25,0007.08,0002.53
2022-07-09 18:49:00,,0832.6,5.00,0.00,29.0,27.3,00.0,37.7,30.9,15.0,0000.0,0003.27,0007.55,0002.53
2022-07-09 18:50:00,,0832.6,4.99,0.00,29.1,27.5,00.0,37.7,30.9,15.1,0000.0,0003.32,0007.92,0002.54
2022-07-09 18:51:00,,0832.6,5.01,0.00,29.1,27.7,00.0,37.7,31.0,15.0,0000.0,0003.31,0008.40,0002.54
2022-07-09 18:52:00,,0832.6,4.99,0.00,29.1,27.9,00.0,37.7,31.1,14.5,0000.0,0003.31,0009.08,0002.55
2022-07-09 18:53:00,,0832.6,5.01,0.00,29.1,27.7,00.0,37.7,31.1,14.2,0000.0,0003.32,0009.54,0002.54
2022-07-09 18:54:00,,0832.6,5.02,0.00,29.1,27.1,00.0,37.7,31.0,14.4,0000.0,0003.33,0009.59,0002.55
2022-07-09 18:55:00,,0832.6,5.01,0.00,29.1,27.0,00.0,37.7,30.9,14.6,0000.0,0003.31,0009.04,0002.55
2022-07-09 18:56:00,,0832.6,5.00,0.00,29.1,27.1,00.0,37.7,30.9,14.4,0000.0,0003.29,0008.89,0002.55
2022-07-09 18:57:00,,0832.6,5.01,0.00,29.1,27.2,00.0,37.7,30.8,14.2,0000.0,0003.28,0008.85,0002.55
2022-07-09 18:58:00,,0832.6,5.00,0.00,29.1,27.4,00.0,37.7,30.9,13.9,0000.0,0003.29,0008.88,0002.56
2022-07-09 18:59:00,,0832.6,4.99,0.00,29.1,27.6,00.0,37.7,31.0,14.1,0000.0,0003.27,0008.47,0002.55
